This is the latest recevied weather packets stored in our database for station/object KI6SYE. If no packets are shown the sender has not sent any weather packets the latest 10 day(s).
| Time | Temp. | Humidity | Pressure | Rain* | Wind** | Luminosity | Snow |
|---|---|---|---|---|---|---|---|
| 1787935845 | 26.67° C | 77% | 1012 hPa | 0 mm | - | 493 W/m² | - |
| 1787935541 | 26.11° C | 79% | 1012 hPa | 0 mm | - | 481 W/m² | - |
| 1787935237 | 27.22° C | 79% | 1011.8 hPa | 0 mm | - | 450 W/m² | - |
| 1787934932 | 29.44° C | 69% | 1011.6 hPa | 0 mm | - | 433 W/m² | - |
| 1787934628 | 29.44° C | 67% | 1011.7 hPa | 0 mm | - | 428 W/m² | - |
| 1787934321 | 29.44° C | 67% | 1011.7 hPa | 0 mm | - | 418 W/m² | - |
| 1787934020 | 29.44° C | 67% | 1011.3 hPa | 0 mm | - | 405 W/m² | - |
| 1787933715 | 28.89° C | 67% | 1011.4 hPa | 0 mm | - | 382 W/m² | - |
| 1787933415 | 28.33° C | 69% | 1011.3 hPa | 0 mm | - | 373 W/m² | - |
| 1787933115 | 28.33° C | 70% | 1011.1 hPa | 0 mm | - | 354 W/m² | - |
| 1787932809 | 28.33° C | 69% | 1011.3 hPa | 0 mm | - | 334 W/m² | - |
| 1787932503 | 28.33° C | 70% | 1011.2 hPa | 0 mm | - | 295 W/m² | - |
| 1787932197 | 27.78° C | 71% | 1011.5 hPa | 0 mm | - | 299 W/m² | - |
| 1787931896 | 27.78° C | 73% | 1011.4 hPa | 0 mm | - | 284 W/m² | - |
| 1787931591 | 27.22° C | 75% | 1011.5 hPa | 0 mm | - | 259 W/m² | - |
| 1787931285 | 26.67° C | 75% | 1011.1 hPa | 0 mm | - | 248 W/m² | - |
| 1787930979 | 27.22° C | 75% | 1011.1 hPa | 0 mm | - | 235 W/m² | - |
| 1787930679 | 26.67° C | 77% | 1011.5 hPa | 0 mm | - | 220 W/m² | - |
| 1787930374 | 26.67° C | 78% | 1011.5 hPa | 0 mm | - | 205 W/m² | - |
| 1787930069 | 26.67° C | 78% | 1011.5 hPa | 0 mm | - | 186 W/m² | - |
| 1787929767 | 26.67° C | 79% | 1011.5 hPa | 0 mm | - | 175 W/m² | - |
| 1787929462 | 26.67° C | 80% | 1011.6 hPa | 0 mm | - | 159 W/m² | - |
| 1787929160 | 26.11° C | 82% | 1011.4 hPa | 0 mm | - | 145 W/m² | - |
| 1787928855 | 25.56° C | 85% | 1011.7 hPa | 0 mm | - | 130 W/m² | - |
| 1787928554 | 24.44° C | 86% | 1011.5 hPa | 0 mm | - | 55 W/m² | - |
* Rain latest hour (hover to see other rain measurements)
** Current wind speed in m/s (hover to see current wind gust speed)